Regional Weather Roundup
Issued by NWS

Home | Current Version | Previous Version | Text Only | Print | Product List | Glossary On
Versions: 1 2 3 4 5 6 7 8 9 10 11 12 13 14 15 16 17 18 19 20 21 22 23 24 25 26 27 28 29 30 31 32 33 34 35 36 37 38 39 40 41 42 43 44 45 46 47 48 49 50
000
ASUS43 KLSX 260207
RWRMO

WEATHER SUMMARY FOR MISSOURI
NATIONAL WEATHER SERVICE SPRINGFIELD MO
900 PM CDT THU MAY 25 2017

NOTE: "FAIR" INDICATES FEW OR NO CLOUDS BELOW 12,000 FEET WITH NO
       SIGNIFICANT WEATHER AND/OR OBSTRUCTIONS TO VISIBILITY.
       CURRENT SKY AND/OR WEATHER CONDITIONS ARE NOT AVAILABLE FOR
       CHILLICOTHE AND FARMINGTON.

MOZ001>031-035>038-043-044-053-054-260300-
...NORTHERN AND WESTERN MISSOURI...

CITY           SKY/WX    TMP DP  RH WIND       PRES   REMARKS
KANSAS CTY INT PTCLDY    68  55  63 SE8       29.62R
KANSAS C DTWN  CLEAR     72  55  55 SE7       29.61R
LEE`S SUMMIT   CLEAR     70  57  63 SE7       29.62R
ST JOSEPH      CLEAR     69  57  65 SE7       29.62R
CHILLICOTHE      N/A     68  55  63 SE7       29.66R
KIRKSVILLE     CLOUDY    61  54  77 CALM      29.72R

$$
MOZ066>068-077>081-088>096-101>105-260300-
...SOUTHWEST MISSOURI...

CITY           SKY/WX    TMP DP  RH WIND       PRES   REMARKS
SPRINGFIELD    CLEAR     71  56  58 S17       29.65R
JOPLIN         CLEAR     74  58  57 SE8       29.62R
BRANSON        CLEAR     68  55  64 SE9       29.71R

$$
MOZ032>034-039>042-045>050-055>058-069>072-260300-
...CENTRAL MISSOURI...

CITY           SKY/WX    TMP DP  RH WIND       PRES   REMARKS
COLUMBIA       PTCLDY    68  54  60 SE8       29.69R
JEFFERSON CITY PTCLDY    71  54  54 SE8       29.68R
ROLLA          PTCLDY    65  54  67 SE9       29.71R
SEDALIA        PTCLDY    69  57  65 SE9       29.66R
WHITEMAN AFB   CLEAR     67  59  74 SE6       29.62S
WARRENSBURG    CLEAR     66  54  63 E7        29.63R
OSAGE BEACH    PTCLDY    68  56  65 SE5       29.69R

$$
MOZ051-052-059>065-260300-
...EAST CENTRAL MISSOURI...

CITY           SKY/WX    TMP DP  RH WIND       PRES   REMARKS
ST LOUIS INTL  PTCLDY    73  49  42 S5        29.73R
SPIRIT OF STL  CLEAR     63  55  75 SE3       29.71R
ST CHARLES     CLEAR     67  52  58 S3        29.72R

$$
MOZ072>076-082>087-097>100-106>115-260300-
...SOUTH CENTRAL AND SOUTHEAST MISSOURI...

CITY           SKY/WX    TMP DP  RH WIND       PRES   REMARKS
CAPE GIRARDEAU CLEAR     64  53  67 S6        29.76R
FARMINGTON     CLEAR     64  52  64 S5        29.76R
POPLAR BLUFF   CLEAR     68  56  65 S5        29.76R
WEST PLAINS    CLEAR     67  55  65 SE6       29.75R

$$




USA.gov is the U.S. government's official web portal to all federal, state and local government web resources and services.